START_TIME,STEP,MOV.,P11,t_acc.,P23,t_acc.,P27,t_acc.,A4,t_acc.
1979-03-09 00:00:21.120 ,2,0,1.,4.8,0.,4.8,0.,4.8,0.,4.8
1979-03-09 00:00:25.920 ,2,0,0.,4.8,0.,4.8,0.,4.8,0.,4.8
1979-03-09 00:00:30.720 ,2,0,1.,4.8,0.,4.8,0.,4.8,0.,4.8
1979-03-09 00:00:35.520 ,2,0,0.,4.8,0.,4.8,0.,4.8,0.,4.8
1979-03-09 00:00:40.320 ,2,0,0.,4.8,0.,4.8,0.,4.8,0.,4.8
1979-03-09 00:00:45.120 ,3,0,1.,4.8,0.,4.8,0.,4.8,0.,4.8
1979-03-09 00:00:49.920 ,3,0,0.,4.8,0.,4.8,0.,4.8,0.,4.8
1979-03-09 00:00:54.720 ,3,0,0.,4.8,0.,4.8,0.,4.8,0.,4.8
1979-03-09 00:00:59.520 ,3,0,1.,4.8,0.,4.8,0.,4.8,0.,4.8
1979-03-09 00:01:04.320 ,3,0,0.,4.8,0.,4.8,0.,4.8,0.,4.8
1979-03-09 00:01:09.120 ,4,0,1.,4.8,0.,4.8,0.,4.8,0.,4.8
1979-03-09 00:01:13.920 ,4,0,0.,4.8,0.,4.8,0.,4.8,0.,4.8
1979-03-09 00:01:18.720 ,4,0,2.,4.8,0.,4.8,0.,4.8,0.,4.8
1979-03-09 00:01:23.520 ,4,0,0.,4.8,0.,4.8,0.,4.8,0.,4.8
1979-03-09 00:01:28.320 ,4,0,1.,4.8,0.,4.8,0.,4.8,0.,4.8
1979-03-09 00:01:33.120 ,5,0,0.,4.8,0.,4.8,0.,4.8,0.,4.8
1979-03-09 00:01:37.920 ,5,0,1.,4.8,0.,4.8,0.,4.8,0.,4.8
1979-03-09 00:01:42.720 ,5,0,1.,4.8,0.,4.8,0.,4.8,0.,4.8
1979-03-09 00:01:47.520 ,5,0,3.,4.8,0.,4.8,0.,4.8,0.,4.8
1979-03-09 00:01:52.320 ,5,0,0.,4.8,0.,4.8,0.,4.8,0.,4.8
1979-03-09 00:01:57.120 ,6,0,0.,4.8,0.,4.8,0.,4.8,0.,4.8
1979-03-09 00:02:01.920 ,6,0,3.,4.8,0.,4.8,0.,4.8,0.,4.8
1979-03-09 00:02:06.720 ,6,0,0.,4.8,0.,4.8,0.,4.8,0.,4.8
1979-03-09 00:02:11.520 ,6,0,0.,4.8,0.,4.8,0.,4.8,0.,4.8
1979-03-09 00:02:16.320 ,6,0,0.,4.8,0.,4.8,0.,4.8,0.,4.8
1979-03-09 00:02:21.120 ,7,0,1.,4.8,0.,4.8,0.,4.8,0.,4.8
1979-03-09 00:02:25.920 ,7,0,0.,4.8,0.,4.8,0.,4.8,0.,4.8
1979-03-09 00:02:30.720 ,7,0,3.,4.8,0.,4.8,0.,4.8,0.,4.8
1979-03-09 00:02:35.520 ,7,0,1.,4.8,0.,4.8,0.,4.8,0.,4.8
1979-03-09 00:02:40.320 ,7,0,0.,4.8,0.,4.8,0.,4.8,0.,4.8
1979-03-09 00:02:45.120 ,7,0,0.,4.8,0.,4.8,0.,4.8,0.,4.8
1979-03-09 00:02:49.920 ,7,0,0.,4.8,0.,4.8,0.,4.8,0.,4.8
1979-03-09 00:02:54.720 ,7,0,1.,4.8,0.,4.8,0.,4.8,0.,4.8
1979-03-09 00:02:59.520 ,7,0,0.,4.8,0.,4.8,0.,4.8,0.,4.8
1979-03-09 00:03:04.320 ,7,0,1.,4.8,0.,4.8,0.,4.8,0.,4.8
1979-03-09 00:03:09.120 ,6,0,0.,4.8,0.,4.8,0.,4.8,0.,4.8
1979-03-09 00:03:13.920 ,6,0,0.,4.8,0.,4.8,0.,4.8,0.,4.8
1979-03-09 00:03:18.720 ,6,0,1.,4.8,0.,4.8,0.,4.8,0.,4.8
1979-03-09 00:03:23.520 ,6,0,0.,4.8,0.,4.8,0.,4.8,0.,4.8
1979-03-09 00:03:28.320 ,6,0,1.,4.8,0.,4.8,0.,4.8,0.,4.8
1979-03-09 00:03:33.120 ,5,0,2.,4.8,0.,4.8,0.,4.8,0.,4.8
1979-03-09 00:03:37.920 ,5,0,0.,4.8,0.,4.8,0.,4.8,0.,4.8
1979-03-09 00:03:42.720 ,5,0,1.,4.8,0.,4.8,0.,4.8,0.,4.8
1979-03-09 00:03:47.520 ,5,0,1.,4.8,0.,4.8,0.,4.8,0.,4.8
1979-03-09 00:03:52.320 ,5,0,0.,4.8,0.,4.8,0.,4.8,0.,4.8
1979-03-09 00:03:57.120 ,4,0,2.,4.8,0.,4.8,0.,4.8,0.,4.8
1979-03-09 00:04:01.920 ,4,0,1.,4.8,0.,4.8,0.,4.8,0.,4.8
1979-03-09 00:04:06.720 ,4,0,0.,4.8,0.,4.8,0.,4.8,0.,4.8
1979-03-09 00:04:11.520 ,4,0,0.,4.8,0.,4.8,0.,4.8,0.,4.8
1979-03-09 00:04:16.320 ,4,0,2.,4.8,0.,4.8,0.,4.8,0.,4.8
1979-03-09 00:04:21.120 ,3,0,1.,4.8,0.,4.8,0.,4.8,0.,4.8
1979-03-09 00:04:25.920 ,3,0,0.,4.8,0.,4.8,0.,4.8,0.,4.8
1979-03-09 00:04:30.720 ,3,0,0.,4.8,0.,4.8,0.,4.8,0.,4.8
1979-03-09 00:04:35.520 ,3,0,0.,4.8,0.,4.8,0.,4.8,0.,4.8
1979-03-09 00:04:40.320 ,3,0,1.,4.8,0.,4.8,0.,4.8,0.,4.8
1979-03-09 00:04:45.120 ,2,0,1.,4.8,0.,4.8,0.,4.8,0.,4.8
1979-03-09 00:04:49.920 ,2,0,1.,4.8,0.,4.8,0.,4.8,0.,4.8
1979-03-09 00:04:54.720 ,2,0,1.,4.8,0.,4.8,0.,4.8,0.,4.8
1979-03-09 00:04:59.520 ,2,0,1.,4.8,0.,4.8,0.,4.8,0.,4.8
1979-03-09 00:05:04.320 ,2,0,1.,4.8,0.,4.8,0.,4.8,0.,4.8
1979-03-09 00:05:09.120 ,1,0,0.,4.8,0.,4.8,0.,4.8,0.,4.8
1979-03-09 00:05:13.920 ,1,0,2.,4.8,0.,4.8,0.,4.8,0.,4.8
1979-03-09 00:05:18.720 ,1,0,1.,4.8,0.,4.8,0.,4.8,0.,4.8
1979-03-09 00:05:23.520 ,1,0,0.,4.8,0.,4.8,0.,4.8,0.,4.8
1979-03-09 00:05:28.320 ,1,0,2.,4.8,0.,4.8,0.,4.8,0.,4.8
1979-03-09 00:05:33.120 ,0,0,1.,4.8,0.,4.8,0.,4.8,0.,4.8
1979-03-09 00:05:37.920 ,0,0,0.,4.8,0.,4.8,0.,4.8,0.,4.8
1979-03-09 00:05:42.720 ,0,0,2.,4.8,0.,4.8,0.,4.8,0.,4.8
1979-03-09 00:05:47.520 ,0,0,2.,4.8,0.,4.8,0.,4.8,0.,4.8
1979-03-09 00:05:52.320 ,0,0,0.,4.8,0.,4.8,0.,4.8,0.,4.8
1979-03-09 00:05:57.120 ,0,0,0.,4.8,0.,4.8,0.,4.8,0.,4.8
1979-03-09 00:06:01.920 ,0,0,2.,4.8,0.,4.8,0.,4.8,0.,4.8
1979-03-09 00:06:06.720 ,0,0,0.,4.8,0.,4.8,0.,4.8,0.,4.8
1979-03-09 00:06:11.520 ,0,0,1.,4.8,0.,4.8,0.,4.8,0.,4.8
1979-03-09 00:06:16.320 ,0,0,1.,4.8,0.,4.8,0.,4.8,0.,4.8
1979-03-09 00:06:21.120 ,1,0,1.,4.8,0.,4.8,0.,4.8,0.,4.8
1979-03-09 00:06:25.920 ,1,0,0.,4.8,0.,4.8,0.,4.8,0.,4.8
1979-03-09 00:06:30.720 ,1,0,2.,4.8,0.,4.8,0.,4.8,0.,4.8
1979-03-09 00:06:35.520 ,1,0,0.,4.8,0.,4.8,0.,4.8,0.,4.8
1979-03-09 00:06:40.320 ,1,0,1.,4.8,0.,4.8,0.,4.8,0.,4.8
1979-03-09 00:06:45.120 ,2,0,0.,4.8,0.,4.8,0.,4.8,0.,4.8
1979-03-09 00:06:49.920 ,2,0,1.,4.8,0.,4.8,0.,4.8,0.,4.8
1979-03-09 00:06:54.720 ,2,0,1.,4.8,0.,4.8,0.,4.8,0.,4.8
1979-03-09 00:06:59.520 ,2,0,0.,4.8,0.,4.8,0.,4.8,0.,4.8
1979-03-09 00:07:04.320 ,2,0,1.,4.8,0.,4.8,0.,4.8,0.,4.8
1979-03-09 00:07:09.120 ,3,0,0.,4.8,0.,4.8,0.,4.8,0.,4.8
1979-03-09 00:07:13.920 ,3,0,1.,4.8,0.,4.8,0.,4.8,0.,4.8
1979-03-09 00:07:18.720 ,3,0,0.,4.8,0.,4.8,0.,4.8,0.,4.8
1979-03-09 00:07:23.520 ,3,0,0.,4.8,0.,4.8,0.,4.8,0.,4.8
1979-03-09 00:07:28.320 ,3,0,0.,4.8,0.,4.8,0.,4.8,0.,4.8
1979-03-09 00:07:33.120 ,4,0,0.,4.8,0.,4.8,0.,4.8,0.,4.8
1979-03-09 00:07:37.920 ,4,0,0.,4.8,0.,4.8,0.,4.8,0.,4.8
1979-03-09 00:07:42.720 ,4,0,1.,4.8,0.,4.8,0.,4.8,0.,4.8
1979-03-09 00:07:47.520 ,4,0,1.,4.8,0.,4.8,0.,4.8,0.,4.8
1979-03-09 00:07:52.320 ,4,0,0.,4.8,0.,4.8,0.,4.8,0.,4.8
1979-03-09 00:07:57.120 ,5,0,0.,4.8,0.,4.8,0.,4.8,0.,4.8
1979-03-09 00:08:01.920 ,5,0,1.,4.8,0.,4.8,0.,4.8,0.,4.8
1979-03-09 00:08:06.720 ,5,0,0.,4.8,0.,4.8,0.,4.8,0.,4.8
1979-03-09 00:08:11.520 ,5,0,1.,4.8,0.,4.8,0.,4.8,0.,4.8
1979-03-09 00:08:16.320 ,5,0,0.,4.8,0.,4.8,0.,4.8,0.,4.8
1979-03-09 00:08:21.120 ,6,0,0.,4.8,0.,4.8,0.,4.8,0.,4.8
1979-03-09 00:08:25.920 ,6,0,0.,4.8,0.,4.8,0.,4.8,0.,4.8
1979-03-09 00:08:30.720 ,6,0,0.,4.8,0.,4.8,0.,4.8,0.,4.8
1979-03-09 00:08:35.520 ,6,0,0.,4.8,0.,4.8,0.,4.8,0.,4.8
1979-03-09 00:08:40.320 ,6,0,1.,4.8,0.,4.8,0.,4.8,0.,4.8
1979-03-09 00:08:45.120 ,7,0,0.,4.8,0.,4.8,0.,4.8,0.,4.8
1979-03-09 00:08:49.920 ,7,0,1.,4.8,0.,4.8,0.,4.8,0.,4.8
1979-03-09 00:08:54.720 ,7,0,3.,4.8,0.,4.8,0.,4.8,0.,4.8
1979-03-09 00:08:59.520 ,7,0,0.,4.8,0.,4.8,0.,4.8,0.,4.8
1979-03-09 00:09:04.320 ,7,0,1.,4.8,0.,4.8,0.,4.8,0.,4.8
1979-03-09 00:09:09.120 ,7,0,0.,4.8,0.,4.8,0.,4.8,0.,4.8
1979-03-09 00:09:13.920 ,7,0,0.,4.8,0.,4.8,0.,4.8,0.,4.8
1979-03-09 00:09:18.720 ,7,0,1.,4.8,0.,4.8,0.,4.8,0.,4.8
1979-03-09 00:09:23.520 ,7,0,0.,4.8,0.,4.8,0.,4.8,0.,4.8
1979-03-09 00:09:28.320 ,7,0,0.,4.8,0.,4.8,0.,4.8,0.,4.8
1979-03-09 00:09:33.120 ,6,0,1.,4.8,0.,4.8,0.,4.8,0.,4.8
1979-03-09 00:09:37.920 ,6,0,0.,4.8,0.,4.8,0.,4.8,0.,4.8
1979-03-09 00:09:42.720 ,6,0,5.,4.8,0.,4.8,0.,4.8,0.,4.8
1979-03-09 00:09:47.520 ,6,0,1.,4.8,0.,4.8,0.,4.8,0.,4.8
1979-03-09 00:09:52.320 ,6,0,2.,4.8,0.,4.8,0.,4.8,0.,4.8
1979-03-09 00:09:57.120 ,5,0,1.,4.8,0.,4.8,0.,4.8,0.,4.8
1979-03-09 00:10:01.920 ,5,0,2.,4.8,0.,4.8,0.,4.8,0.,4.8
1979-03-09 00:10:06.720 ,5,0,1.,4.8,0.,4.8,0.,4.8,0.,4.8
1979-03-09 00:10:11.520 ,5,0,2.,4.8,0.,4.8,0.,4.8,0.,4.8
1979-03-09 00:10:16.320 ,5,0,1.,4.8,0.,4.8,0.,4.8,0.,4.8
1979-03-09 00:10:21.120 ,4,0,0.,4.8,0.,4.8,0.,4.8,0.,4.8
1979-03-09 00:10:25.920 ,4,0,0.,4.8,0.,4.8,0.,4.8,0.,4.8
1979-03-09 00:10:30.720 ,4,0,2.,4.8,0.,4.8,0.,4.8,0.,4.8
1979-03-09 00:10:35.520 ,4,0,1.,4.8,0.,4.8,0.,4.8,0.,4.8
1979-03-09 00:10:40.320 ,4,0,1.,4.8,0.,4.8,0.,4.8,0.,4.8
1979-03-09 00:10:45.120 ,3,0,2.,4.8,0.,4.8,0.,4.8,0.,4.8
1979-03-09 00:10:49.920 ,3,0,1.,4.8,0.,4.8,0.,4.8,0.,4.8
1979-03-09 00:10:54.720 ,3,0,0.,4.8,0.,4.8,0.,4.8,0.,4.8
1979-03-09 00:10:59.520 ,3,0,3.,4.8,0.,4.8,0.,4.8,0.,4.8
1979-03-09 00:11:04.320 ,3,0,0.,4.8,0.,4.8,0.,4.8,0.,4.8
1979-03-09 00:11:09.120 ,2,0,0.,4.8,0.,4.8,0.,4.8,0.,4.8
1979-03-09 00:11:13.920 ,2,0,1.,4.8,0.,4.8,0.,4.8,0.,4.8
1979-03-09 00:11:18.720 ,2,0,0.,4.8,0.,4.8,0.,4.8,0.,4.8
1979-03-09 00:11:23.520 ,2,0,0.,4.8,0.,4.8,0.,4.8,0.,4.8
1979-03-09 00:11:28.320 ,2,0,4.,4.8,0.,4.8,0.,4.8,0.,4.8
1979-03-09 00:11:33.120 ,1,0,1.,4.8,0.,4.8,0.,4.8,0.,4.8
1979-03-09 00:11:37.920 ,1,0,0.,4.8,0.,4.8,0.,4.8,0.,4.8
1979-03-09 00:11:42.720 ,1,0,2.,4.8,0.,4.8,0.,4.8,0.,4.8
1979-03-09 00:11:47.520 ,1,0,0.,4.8,0.,4.8,0.,4.8,0.,4.8
1979-03-09 00:11:52.320 ,1,0,0.,4.8,0.,4.8,0.,4.8,0.,4.8
1979-03-09 00:11:57.120 ,0,0,1.,4.8,0.,4.8,0.,4.8,0.,4.8
1979-03-09 00:12:01.920 ,0,0,0.,4.8,0.,4.8,0.,4.8,0.,4.8
1979-03-09 00:12:06.720 ,0,0,0.,4.8,0.,4.8,0.,4.8,0.,4.8
1979-03-09 00:12:11.520 ,0,0,1.,4.8,0.,4.8,0.,4.8,0.,4.8
1979-03-09 00:12:16.320 ,0,0,0.,4.8,0.,4.8,0.,4.8,0.,4.8
1979-03-09 00:12:21.120 ,0,0,1.,4.8,0.,4.8,0.,4.8,0.,4.8
1979-03-09 00:12:25.920 ,0,0,1.,4.8,0.,4.8,0.,4.8,0.,4.8
1979-03-09 00:12:30.720 ,0,0,0.,4.8,0.,4.8,0.,4.8,0.,4.8
1979-03-09 00:12:35.520 ,0,0,0.,4.8,0.,4.8,0.,4.8,0.,4.8
1979-03-09 00:12:40.320 ,0,0,0.,4.8,0.,4.8,0.,4.8,0.,4.8
1979-03-09 00:12:45.120 ,1,0,1.,4.8,0.,4.8,0.,4.8,0.,4.8
1979-03-09 00:12:49.920 ,1,0,0.,4.8,0.,4.8,0.,4.8,0.,4.8
1979-03-09 00:12:54.720 ,1,0,0.,4.8,0.,4.8,0.,4.8,0.,4.8
1979-03-09 00:12:59.520 ,1,0,2.,4.8,0.,4.8,0.,4.8,0.,4.8
1979-03-09 00:13:04.320 ,1,0,0.,4.8,0.,4.8,0.,4.8,0.,4.8
1979-03-09 00:13:09.120 ,2,0,2.,4.8,0.,4.8,0.,4.8,0.,4.8
1979-03-09 00:13:13.920 ,2,0,1.,4.8,0.,4.8,0.,4.8,0.,4.8
1979-03-09 00:13:18.720 ,2,0,0.,4.8,0.,4.8,0.,4.8,0.,4.8
1979-03-09 00:13:23.520 ,2,0,0.,4.8,0.,4.8,0.,4.8,0.,4.8
1979-03-09 00:13:28.320 ,2,0,2.,4.8,0.,4.8,0.,4.8,0.,4.8
1979-03-09 00:13:33.120 ,3,0,0.,4.8,0.,4.8,0.,4.8,0.,4.8
1979-03-09 00:13:37.920 ,3,0,1.,4.8,0.,4.8,0.,4.8,0.,4.8
1979-03-09 00:13:42.720 ,3,0,2.,4.8,0.,4.8,0.,4.8,1.,4.8
1979-03-09 00:13:47.520 ,3,0,1.,4.8,0.,4.8,0.,4.8,0.,4.8
1979-03-09 00:13:52.320 ,3,0,1.,4.8,0.,4.8,0.,4.8,0.,4.8
1979-03-09 00:13:57.120 ,4,0,1.,4.8,0.,4.8,0.,4.8,0.,4.8
1979-03-09 00:14:01.920 ,4,0,2.,4.8,0.,4.8,0.,4.8,0.,4.8
1979-03-09 00:14:06.720 ,4,0,3.,4.8,0.,4.8,0.,4.8,1.,4.8
1979-03-09 00:14:11.520 ,4,0,2.,4.8,0.,4.8,0.,4.8,0.,4.8
1979-03-09 00:14:16.320 ,4,0,0.,4.8,0.,4.8,0.,4.8,0.,4.8
1979-03-09 00:14:21.120 ,5,0,1.,4.8,0.,4.8,0.,4.8,0.,4.8
1979-03-09 00:14:25.920 ,5,0,2.,4.8,0.,4.8,0.,4.8,0.,4.8
1979-03-09 00:14:30.720 ,5,0,0.,4.8,0.,4.8,0.,4.8,0.,4.8
1979-03-09 00:14:35.520 ,5,0,3.,4.8,0.,4.8,0.,4.8,0.,4.8
1979-03-09 00:14:40.320 ,5,0,4.,4.8,0.,4.8,0.,4.8,0.,4.8
1979-03-09 00:14:45.120 ,6,0,0.,4.8,0.,4.8,0.,4.8,0.,4.8
1979-03-09 00:14:49.920 ,6,0,3.,4.8,0.,4.8,0.,4.8,0.,4.8
1979-03-09 00:14:54.720 ,6,0,1.,4.8,0.,4.8,0.,4.8,0.,4.8
1979-03-09 00:14:59.520 ,6,0,1.,4.8,0.,4.8,0.,4.8,0.,4.8
1979-03-09 00:15:04.320 ,6,0,1.,4.8,0.,4.8,0.,4.8,0.,4.8
1979-03-09 00:15:09.120 ,7,0,0.,4.8,0.,4.8,0.,4.8,0.,4.8
1979-03-09 00:15:13.920 ,7,0,1.,4.8,0.,4.8,0.,4.8,0.,4.8
1979-03-09 00:15:18.720 ,7,0,0.,4.8,0.,4.8,0.,4.8,0.,4.8
1979-03-09 00:15:23.520 ,7,0,0.,4.8,0.,4.8,0.,4.8,0.,4.8
1979-03-09 00:15:28.320 ,7,0,0.,4.8,0.,4.8,0.,4.8,0.,4.8
1979-03-09 00:15:33.120 ,7,0,0.,4.8,0.,4.8,0.,4.8,0.,4.8
1979-03-09 00:15:37.920 ,7,0,1.,4.8,0.,4.8,0.,4.8,0.,4.8
1979-03-09 00:15:42.720 ,7,0,0.,4.8,0.,4.8,0.,4.8,0.,4.8
1979-03-09 00:15:47.520 ,7,0,0.,4.8,0.,4.8,0.,4.8,0.,4.8
1979-03-09 00:15:52.320 ,7,0,1.,4.8,0.,4.8,0.,4.8,0.,4.8
1979-03-09 00:15:57.120 ,6,0,2.,4.8,0.,4.8,0.,4.8,0.,4.8
1979-03-09 00:16:01.920 ,6,0,0.,4.8,0.,4.8,0.,4.8,0.,4.8
1979-03-09 00:16:06.720 ,6,0,1.,4.8,0.,4.8,0.,4.8,0.,4.8
1979-03-09 00:16:11.520 ,6,0,1.,4.8,0.,4.8,0.,4.8,0.,4.8
1979-03-09 00:16:16.320 ,6,0,0.,4.8,0.,4.8,0.,4.8,0.,4.8
1979-03-09 00:16:21.120 ,5,0,3.,4.8,0.,4.8,0.,4.8,0.,4.8
1979-03-09 00:16:25.920 ,5,0,0.,4.8,0.,4.8,0.,4.8,0.,4.8
1979-03-09 00:16:30.720 ,5,0,2.,4.8,0.,4.8,0.,4.8,1.,4.8
1979-03-09 00:16:35.520 ,5,0,1.,4.8,0.,4.8,0.,4.8,0.,4.8
1979-03-09 00:16:40.320 ,5,0,0.,4.8,0.,4.8,0.,4.8,0.,4.8
1979-03-09 00:16:45.120 ,4,0,0.,4.8,0.,4.8,0.,4.8,1.,4.8
1979-03-09 00:16:49.920 ,4,0,2.,4.8,0.,4.8,0.,4.8,0.,4.8
1979-03-09 00:16:54.720 ,4,0,3.,4.8,0.,4.8,0.,4.8,0.,4.8
1979-03-09 00:16:59.520 ,4,0,1.,4.8,0.,4.8,0.,4.8,0.,4.8
1979-03-09 00:17:04.320 ,4,0,0.,4.8,0.,4.8,0.,4.8,0.,4.8
1979-03-09 00:17:09.120 ,3,0,0.,4.8,0.,4.8,0.,4.8,0.,4.8
1979-03-09 00:17:13.920 ,3,0,2.,4.8,0.,4.8,0.,4.8,0.,4.8
1979-03-09 00:17:18.720 ,3,0,0.,4.8,0.,4.8,0.,4.8,0.,4.8
1979-03-09 00:17:23.520 ,3,0,1.,4.8,0.,4.8,0.,4.8,0.,4.8
1979-03-09 00:17:28.320 ,3,0,0.,4.8,0.,4.8,0.,4.8,0.,4.8
1979-03-09 00:17:33.120 ,2,0,2.,4.8,0.,4.8,0.,4.8,0.,4.8
1979-03-09 00:17:37.920 ,2,0,1.,4.8,0.,4.8,0.,4.8,0.,4.8
1979-03-09 00:17:42.720 ,2,0,2.,4.8,0.,4.8,0.,4.8,0.,4.8
1979-03-09 00:17:47.520 ,2,0,1.,4.8,0.,4.8,0.,4.8,0.,4.8
1979-03-09 00:17:52.320 ,2,0,0.,4.8,0.,4.8,0.,4.8,0.,4.8
1979-03-09 00:17:57.120 ,1,0,2.,4.8,0.,4.8,0.,4.8,0.,4.8
1979-03-09 00:18:01.920 ,1,0,0.,4.8,0.,4.8,0.,4.8,0.,4.8
1979-03-09 00:18:06.720 ,1,0,1.,4.8,0.,4.8,0.,4.8,0.,4.8
1979-03-09 00:18:11.520 ,1,0,1.,4.8,0.,4.8,0.,4.8,0.,4.8
1979-03-09 00:18:16.320 ,1,0,1.,4.8,0.,4.8,0.,4.8,0.,4.8
1979-03-09 00:18:21.120 ,0,0,0.,4.8,0.,4.8,0.,4.8,0.,4.8
1979-03-09 00:18:25.920 ,0,0,0.,4.8,0.,4.8,0.,4.8,0.,4.8
1979-03-09 00:18:30.720 ,0,0,2.,4.8,0.,4.8,0.,4.8,0.,4.8
1979-03-09 00:18:35.520 ,0,0,2.,4.8,0.,4.8,0.,4.8,0.,4.8
1979-03-09 00:18:40.320 ,0,0,0.,4.8,0.,4.8,0.,4.8,0.,4.8
1979-03-09 00:18:45.120 ,0,0,3.,4.8,0.,4.8,0.,4.8,0.,4.8
1979-03-09 00:18:49.920 ,0,0,2.,4.8,0.,4.8,0.,4.8,0.,4.8
1979-03-09 00:18:54.720 ,0,0,3.,4.8,0.,4.8,0.,4.8,0.,4.8
1979-03-09 00:18:59.520 ,0,0,4.,4.8,0.,4.8,0.,4.8,0.,4.8
1979-03-09 00:19:04.320 ,0,0,0.,4.8,0.,4.8,0.,4.8,0.,4.8
1979-03-09 00:19:09.120 ,1,0,5.,4.8,0.,4.8,0.,4.8,0.,4.8
1979-03-09 00:19:13.920 ,1,0,0.,4.8,0.,4.8,0.,4.8,0.,4.8
1979-03-09 00:19:18.720 ,1,0,4.,4.8,0.,4.8,0.,4.8,0.,4.8
1979-03-09 00:19:23.520 ,1,0,1.,4.8,0.,4.8,0.,4.8,0.,4.8
1979-03-09 00:19:28.320 ,1,0,1.,4.8,0.,4.8,0.,4.8,0.,4.8
1979-03-09 00:19:33.120 ,2,0,1.,4.8,0.,4.8,0.,4.8,0.,4.8
1979-03-09 00:19:37.920 ,2,0,0.,4.8,0.,4.8,0.,4.8,0.,4.8
1979-03-09 00:19:42.720 ,2,0,2.,4.8,0.,4.8,0.,4.8,0.,4.8
1979-03-09 00:19:47.520 ,2,0,3.,4.8,0.,4.8,0.,4.8,0.,4.8
1979-03-09 00:19:52.320 ,2,0,1.,4.8,0.,4.8,0.,4.8,0.,4.8
1979-03-09 00:19:57.120 ,3,0,1.,4.8,0.,4.8,0.,4.8,0.,4.8
1979-03-09 00:20:01.920 ,3,0,2.,4.8,0.,4.8,0.,4.8,0.,4.8
1979-03-09 00:20:06.720 ,3,0,2.,4.8,0.,4.8,0.,4.8,0.,4.8
1979-03-09 00:20:11.520 ,3,0,1.,4.8,0.,4.8,0.,4.8,0.,4.8
1979-03-09 00:20:16.320 ,3,0,3.,4.8,0.,4.8,0.,4.8,0.,4.8
1979-03-09 00:20:21.120 ,4,0,1.,4.8,0.,4.8,0.,4.8,0.,4.8
1979-03-09 00:20:25.920 ,4,0,2.,4.8,0.,4.8,0.,4.8,0.,4.8
1979-03-09 00:20:30.720 ,4,0,1.,4.8,0.,4.8,0.,4.8,0.,4.8
1979-03-09 00:20:35.520 ,4,0,5.,4.8,0.,4.8,0.,4.8,0.,4.8
1979-03-09 00:20:40.320 ,4,0,3.,4.8,0.,4.8,0.,4.8,0.,4.8
1979-03-09 00:20:45.120 ,5,0,3.,4.8,0.,4.8,0.,4.8,0.,4.8
1979-03-09 00:20:49.920 ,5,0,2.,4.8,0.,4.8,0.,4.8,0.,4.8
1979-03-09 00:20:54.720 ,5,0,2.,4.8,0.,4.8,0.,4.8,0.,4.8
1979-03-09 00:20:59.520 ,5,0,2.,4.8,0.,4.8,0.,4.8,0.,4.8
1979-03-09 00:21:04.320 ,5,0,2.,4.8,0.,4.8,0.,4.8,0.,4.8
1979-03-09 00:21:09.120 ,6,0,0.,4.8,0.,4.8,0.,4.8,0.,4.8
1979-03-09 00:21:13.920 ,6,0,4.,4.8,0.,4.8,0.,4.8,0.,4.8
1979-03-09 00:21:18.720 ,6,0,5.,4.8,0.,4.8,0.,4.8,0.,4.8
1979-03-09 00:21:23.520 ,6,0,3.,4.8,0.,4.8,0.,4.8,0.,4.8
1979-03-09 00:21:28.320 ,6,0,3.,4.8,0.,4.8,0.,4.8,0.,4.8
1979-03-09 00:21:33.120 ,7,0,1.,4.8,0.,4.8,0.,4.8,0.,4.8
1979-03-09 00:21:37.920 ,7,0,2.,4.8,0.,4.8,0.,4.8,0.,4.8
1979-03-09 00:21:42.720 ,7,0,2.,4.8,0.,4.8,0.,4.8,0.,4.8
1979-03-09 00:21:47.520 ,7,0,1.,4.8,0.,4.8,0.,4.8,0.,4.8
1979-03-09 00:21:52.320 ,7,0,1.,4.8,0.,4.8,0.,4.8,0.,4.8
1979-03-09 00:21:57.120 ,7,0,0.,4.8,0.,4.8,0.,4.8,0.,4.8
1979-03-09 00:22:01.920 ,7,0,3.,4.8,0.,4.8,0.,4.8,0.,4.8
1979-03-09 00:22:06.720 ,7,0,1.,4.8,0.,4.8,0.,4.8,0.,4.8
1979-03-09 00:22:11.520 ,7,0,3.,4.8,0.,4.8,0.,4.8,0.,4.8
1979-03-09 00:22:16.320 ,7,0,0.,4.8,0.,4.8,0.,4.8,0.,4.8
1979-03-09 00:22:21.120 ,6,0,2.,4.8,0.,4.8,0.,4.8,0.,4.8
1979-03-09 00:22:25.920 ,6,0,2.,4.8,0.,4.8,0.,4.8,0.,4.8
1979-03-09 00:22:30.720 ,6,0,6.,4.8,0.,4.8,0.,4.8,0.,4.8
1979-03-09 00:22:35.520 ,6,0,2.,4.8,0.,4.8,0.,4.8,0.,4.8
1979-03-09 00:22:40.320 ,6,0,2.,4.8,0.,4.8,0.,4.8,0.,4.8
1979-03-09 00:22:45.120 ,5,0,6.,4.8,0.,4.8,0.,4.8,0.,4.8
1979-03-09 00:22:49.920 ,5,0,3.,4.8,0.,4.8,0.,4.8,0.,4.8
1979-03-09 00:22:54.720 ,5,0,3.,4.8,0.,4.8,0.,4.8,1.,4.8
1979-03-09 00:22:59.520 ,5,0,5.,4.8,0.,4.8,0.,4.8,0.,4.8
1979-03-09 00:23:04.320 ,5,0,1.,4.8,0.,4.8,0.,4.8,0.,4.8
1979-03-09 00:23:09.120 ,4,0,2.,4.8,0.,4.8,0.,4.8,0.,4.8
1979-03-09 00:23:13.920 ,4,0,2.,4.8,0.,4.8,0.,4.8,0.,4.8
1979-03-09 00:23:18.720 ,4,0,6.,4.8,0.,4.8,0.,4.8,0.,4.8
1979-03-09 00:23:23.520 ,4,0,6.,4.8,0.,4.8,0.,4.8,0.,4.8
1979-03-09 00:23:28.320 ,4,0,5.,4.8,0.,4.8,0.,4.8,0.,4.8
1979-03-09 00:23:33.120 ,3,0,3.,4.8,0.,4.8,0.,4.8,0.,4.8
1979-03-09 00:23:37.920 ,3,0,5.,4.8,0.,4.8,0.,4.8,0.,4.8
1979-03-09 00:23:42.720 ,3,0,7.,4.8,0.,4.8,0.,4.8,0.,4.8
1979-03-09 00:23:47.520 ,3,0,3.,4.8,0.,4.8,0.,4.8,0.,4.8
1979-03-09 00:23:52.320 ,3,0,3.,4.8,0.,4.8,0.,4.8,0.,4.8
1979-03-09 00:23:57.120 ,2,0,4.,4.8,0.,4.8,0.,4.8,0.,4.8
1979-03-09 00:24:01.920 ,2,0,5.,4.8,0.,4.8,0.,4.8,0.,4.8
1979-03-09 00:24:06.720 ,2,0,8.,4.8,0.,4.8,0.,4.8,0.,4.8
1979-03-09 00:24:11.520 ,2,0,5.,4.8,0.,4.8,0.,4.8,0.,4.8
1979-03-09 00:24:16.320 ,2,0,4.,4.8,0.,4.8,0.,4.8,0.,4.8
1979-03-09 00:24:21.120 ,1,0,2.,4.8,0.,4.8,0.,4.8,0.,4.8
1979-03-09 00:24:25.920 ,1,0,3.,4.8,0.,4.8,0.,4.8,0.,4.8
1979-03-09 00:24:30.720 ,1,0,4.,4.8,0.,4.8,0.,4.8,0.,4.8
1979-03-09 00:24:35.520 ,1,0,4.,4.8,0.,4.8,0.,4.8,0.,4.8
1979-03-09 00:24:40.320 ,1,0,2.,4.8,0.,4.8,0.,4.8,0.,4.8
1979-03-09 00:24:45.120 ,0,0,3.,4.8,0.,4.8,0.,4.8,0.,4.8
1979-03-09 00:24:49.920 ,0,0,3.,4.8,0.,4.8,0.,4.8,0.,4.8
1979-03-09 00:24:54.720 ,0,0,5.,4.8,0.,4.8,0.,4.8,0.,4.8
1979-03-09 00:24:59.520 ,0,0,2.,4.8,0.,4.8,0.,4.8,0.,4.8
1979-03-09 00:25:04.320 ,0,0,1.,4.8,0.,4.8,0.,4.8,0.,4.8
1979-03-09 00:25:09.120 ,0,0,4.,4.8,0.,4.8,0.,4.8,0.,4.8
1979-03-09 00:25:13.920 ,0,0,1.,4.8,0.,4.8,0.,4.8,0.,4.8
1979-03-09 00:25:18.720 ,0,0,2.,4.8,0.,4.8,0.,4.8,0.,4.8
1979-03-09 00:25:23.520 ,0,0,5.,4.8,0.,4.8,0.,4.8,0.,4.8
1979-03-09 00:25:28.320 ,0,0,3.,4.8,0.,4.8,0.,4.8,0.,4.8
1979-03-09 00:25:33.120 ,1,0,2.,4.8,0.,4.8,0.,4.8,0.,4.8
1979-03-09 00:25:37.920 ,1,0,3.,4.8,0.,4.8,0.,4.8,0.,4.8
1979-03-09 00:25:42.720 ,1,0,2.,4.8,0.,4.8,0.,4.8,0.,4.8
1979-03-09 00:25:47.520 ,1,0,3.,4.8,0.,4.8,0.,4.8,0.,4.8
1979-03-09 00:25:52.320 ,1,0,2.,4.8,0.,4.8,0.,4.8,0.,4.8
1979-03-09 00:25:57.120 ,2,0,6.,4.8,0.,4.8,0.,4.8,0.,4.8
1979-03-09 00:26:01.920 ,2,0,2.,4.8,0.,4.8,0.,4.8,1.,4.8
1979-03-09 00:26:06.720 ,2,0,4.,4.8,0.,4.8,0.,4.8,0.,4.8
1979-03-09 00:26:11.520 ,2,0,3.,4.8,0.,4.8,0.,4.8,0.,4.8
1979-03-09 00:26:16.320 ,2,0,3.,4.8,0.,4.8,0.,4.8,1.,4.8
1979-03-09 00:26:21.120 ,3,0,0.,4.8,0.,4.8,0.,4.8,0.,4.8
1979-03-09 00:26:25.920 ,3,0,2.,4.8,0.,4.8,0.,4.8,0.,4.8
1979-03-09 00:26:30.720 ,3,0,2.,4.8,0.,4.8,0.,4.8,0.,4.8
1979-03-09 00:26:35.520 ,3,0,6.,4.8,0.,4.8,0.,4.8,0.,4.8
1979-03-09 00:26:40.320 ,3,0,5.,4.8,0.,4.8,0.,4.8,0.,4.8
1979-03-09 00:26:45.120 ,4,0,5.,4.8,0.,4.8,0.,4.8,0.,4.8
1979-03-09 00:26:49.920 ,4,0,2.,4.8,0.,4.8,0.,4.8,1.,4.8
1979-03-09 00:26:54.720 ,4,0,3.,4.8,0.,4.8,0.,4.8,0.,4.8
1979-03-09 00:26:59.520 ,4,0,4.,4.8,0.,4.8,0.,4.8,1.,4.8
1979-03-09 00:27:04.320 ,4,0,3.,4.8,0.,4.8,0.,4.8,0.,4.8
1979-03-09 00:27:09.120 ,5,0,5.,4.8,0.,4.8,0.,4.8,0.,4.8
1979-03-09 00:27:13.920 ,5,0,3.,4.8,0.,4.8,0.,4.8,1.,4.8
1979-03-09 00:27:18.720 ,5,0,3.,4.8,0.,4.8,0.,4.8,0.,4.8
1979-03-09 00:27:23.520 ,5,0,2.,4.8,0.,4.8,0.,4.8,0.,4.8
1979-03-09 00:27:28.320 ,5,0,3.,4.8,0.,4.8,0.,4.8,0.,4.8
1979-03-09 00:27:33.120 ,6,0,3.,4.8,0.,4.8,0.,4.8,0.,4.8
1979-03-09 00:27:37.920 ,6,0,4.,4.8,0.,4.8,0.,4.8,1.,4.8
1979-03-09 00:27:42.720 ,6,0,6.,4.8,0.,4.8,0.,4.8,0.,4.8
1979-03-09 00:27:47.520 ,6,0,1.,4.8,0.,4.8,0.,4.8,0.,4.8
1979-03-09 00:27:52.320 ,6,0,2.,4.8,0.,4.8,0.,4.8,0.,4.8
1979-03-09 00:27:57.120 ,7,0,1.,4.8,0.,4.8,0.,4.8,0.,4.8
1979-03-09 00:28:01.920 ,7,0,4.,4.8,0.,4.8,0.,4.8,0.,4.8
1979-03-09 00:28:06.720 ,7,0,1.,4.8,0.,4.8,0.,4.8,0.,4.8
1979-03-09 00:28:11.520 ,7,0,0.,4.8,0.,4.8,0.,4.8,0.,4.8
1979-03-09 00:28:16.320 ,7,0,1.,4.8,0.,4.8,0.,4.8,0.,4.8
1979-03-09 00:28:21.120 ,7,0,0.,4.8,0.,4.8,0.,4.8,0.,4.8
1979-03-09 00:28:25.920 ,7,0,0.,4.8,0.,4.8,0.,4.8,0.,4.8
1979-03-09 00:28:30.720 ,7,0,0.,4.8,0.,4.8,0.,4.8,0.,4.8
1979-03-09 00:28:35.520 ,7,0,0.,4.8,0.,4.8,0.,4.8,0.,4.8
1979-03-09 00:28:40.320 ,7,0,1.,4.8,0.,4.8,0.,4.8,0.,4.8
1979-03-09 00:28:45.120 ,6,0,2.,4.8,0.,4.8,0.,4.8,0.,4.8
1979-03-09 00:28:49.920 ,6,0,0.,4.8,0.,4.8,0.,4.8,0.,4.8
1979-03-09 00:28:54.720 ,6,0,4.,4.8,0.,4.8,0.,4.8,1.,4.8
1979-03-09 00:28:59.520 ,6,0,4.,4.8,0.,4.8,0.,4.8,0.,4.8
1979-03-09 00:29:04.320 ,6,0,4.,4.8,0.,4.8,0.,4.8,0.,4.8
1979-03-09 00:29:09.120 ,5,0,5.,4.8,0.,4.8,0.,4.8,0.,4.8
1979-03-09 00:29:13.920 ,5,0,5.,4.8,0.,4.8,0.,4.8,0.,4.8
1979-03-09 00:29:18.720 ,5,0,1.,4.8,0.,4.8,0.,4.8,0.,4.8
1979-03-09 00:29:23.520 ,5,0,3.,4.8,0.,4.8,0.,4.8,0.,4.8
1979-03-09 00:29:28.320 ,5,0,1.,4.8,0.,4.8,0.,4.8,0.,4.8
1979-03-09 00:29:33.120 ,4,0,6.,4.8,0.,4.8,0.,4.8,0.,4.8
1979-03-09 00:29:37.920 ,4,0,5.,4.8,0.,4.8,0.,4.8,1.,4.8
1979-03-09 00:29:42.720 ,4,0,6.,4.8,0.,4.8,0.,4.8,0.,4.8
1979-03-09 00:29:47.520 ,4,0,9.,4.8,0.,4.8,0.,4.8,0.,4.8
1979-03-09 00:29:52.320 ,4,0,3.,4.8,0.,4.8,0.,4.8,0.,4.8
1979-03-09 00:29:57.120 ,3,0,6.,4.8,0.,4.8,0.,4.8,0.,4.8
1979-03-09 00:30:01.920 ,3,0,12.,4.8,0.,4.8,0.,4.8,0.,4.8
1979-03-09 00:30:06.720 ,3,0,5.,4.8,0.,4.8,0.,4.8,2.,4.8
1979-03-09 00:30:11.520 ,3,0,6.,4.8,0.,4.8,0.,4.8,0.,4.8
1979-03-09 00:30:16.320 ,3,0,5.,4.8,0.,4.8,0.,4.8,0.,4.8
1979-03-09 00:30:21.120 ,2,0,8.,4.8,0.,4.8,0.,4.8,0.,4.8
1979-03-09 00:30:25.920 ,2,0,9.,4.8,0.,4.8,0.,4.8,0.,4.8
1979-03-09 00:30:30.720 ,2,0,5.,4.8,0.,4.8,0.,4.8,0.,4.8
1979-03-09 00:30:35.520 ,2,0,7.,4.8,0.,4.8,0.,4.8,0.,4.8
1979-03-09 00:30:40.320 ,2,0,9.,4.8,0.,4.8,0.,4.8,0.,4.8
1979-03-09 00:30:45.120 ,1,0,11.,4.8,0.,4.8,0.,4.8,0.,4.8
1979-03-09 00:30:49.920 ,1,0,9.,4.8,0.,4.8,0.,4.8,0.,4.8
1979-03-09 00:30:54.720 ,1,0,3.,4.8,0.,4.8,0.,4.8,1.,4.8
1979-03-09 00:30:59.520 ,1,0,5.,4.8,0.,4.8,0.,4.8,0.,4.8
1979-03-09 00:31:04.320 ,1,0,6.,4.8,0.,4.8,0.,4.8,0.,4.8
1979-03-09 00:31:09.120 ,0,0,4.,4.8,0.,4.8,0.,4.8,0.,4.8
1979-03-09 00:31:13.920 ,0,0,5.,4.8,0.,4.8,0.,4.8,0.,4.8
1979-03-09 00:31:18.720 ,0,0,7.,4.8,0.,4.8,0.,4.8,0.,4.8
1979-03-09 00:31:23.520 ,0,0,5.,4.8,0.,4.8,0.,4.8,0.,4.8
1979-03-09 00:31:28.320 ,0,0,3.,4.8,0.,4.8,0.,4.8,1.,4.8
1979-03-09 00:31:33.120 ,0,0,10.,4.8,0.,4.8,0.,4.8,0.,4.8
1979-03-09 00:31:37.920 ,0,0,7.,4.8,0.,4.8,0.,4.8,0.,4.8
1979-03-09 00:31:42.720 ,0,0,4.,4.8,0.,4.8,0.,4.8,0.,4.8
1979-03-09 00:31:47.520 ,0,0,6.,4.8,0.,4.8,0.,4.8,0.,4.8
1979-03-09 00:31:52.320 ,0,0,5.,4.8,0.,4.8,0.,4.8,0.,4.8
1979-03-09 00:31:57.120 ,1,0,5.,4.8,0.,4.8,0.,4.8,0.,4.8
1979-03-09 00:32:01.920 ,1,0,6.,4.8,0.,4.8,0.,4.8,0.,4.8
1979-03-09 00:32:06.720 ,1,0,6.,4.8,0.,4.8,0.,4.8,0.,4.8
1979-03-09 00:32:11.520 ,1,0,4.,4.8,0.,4.8,0.,4.8,0.,4.8
1979-03-09 00:32:16.320 ,1,0,3.,4.8,0.,4.8,0.,4.8,0.,4.8
1979-03-09 00:32:21.120 ,2,0,6.,4.8,0.,4.8,0.,4.8,0.,4.8
1979-03-09 00:32:25.920 ,2,0,5.,4.8,0.,4.8,0.,4.8,0.,4.8
1979-03-09 00:32:30.720 ,2,0,4.,4.8,0.,4.8,0.,4.8,0.,4.8
1979-03-09 00:32:35.520 ,2,0,4.,4.8,0.,4.8,0.,4.8,0.,4.8
1979-03-09 00:32:40.320 ,2,0,5.,4.8,0.,4.8,0.,4.8,0.,4.8
1979-03-09 00:32:45.120 ,3,0,7.,4.8,0.,4.8,0.,4.8,0.,4.8
1979-03-09 00:32:49.920 ,3,0,1.,4.8,0.,4.8,0.,4.8,0.,4.8
1979-03-09 00:32:54.720 ,3,0,5.,4.8,0.,4.8,0.,4.8,0.,4.8
1979-03-09 00:32:59.520 ,3,0,6.,4.8,0.,4.8,0.,4.8,0.,4.8
1979-03-09 00:33:04.320 ,3,0,3.,4.8,0.,4.8,0.,4.8,0.,4.8
1979-03-09 00:33:09.120 ,4,0,2.,4.8,0.,4.8,0.,4.8,0.,4.8
1979-03-09 00:33:13.920 ,4,0,0.,4.8,0.,4.8,0.,4.8,0.,4.8